Regional Weather Roundup
Issued by NWS

Home | Current Version | Previous Version | Text Only | Print | Product List | Glossary Off
Versions: 1 2 3 4 5 6 7 8 9 10 11 12 13 14 15 16 17 18 19 20 21 22 23 24 25 26 27 28 29 30 31 32 33 34 35 36 37 38 39 40 41 42 43 44 45 46 47 48 49 50

000
ASUS43 KLOT 240903
RWRIL

ILLINOIS REGIONAL WEATHER ROUNDUP
NATIONAL WEATHER SERVICE CHICAGO/ROMEOVILLE IL
400 AM CDT MON APR 24 2017

NOTE: "FAIR" INDICATES FEW OR NO CLOUDS BELOW 12,000 FEET WITH NO
SIGNIFICANT WEATHER AND/OR OBSTRUCTIONS TO VISIBILITY.

* THESE STATIONS ARE NOT UNDER NWS QUALITY CONTROL. THEY ALSO MAY NOT
  REPORT WEATHER SUCH AS PRECIPITATION OR FOG.

ILZ001-002-007-009-015-016-024-241000-
NORTHWEST ILLINOIS

CITY           SKY/WX    TMP DP  RH WIND       PRES   REMARKS
MOLINE         CLEAR     44  34  67 CALM      29.97S
STERLING*      CLEAR     43  35  73 CALM      29.99S
$$

ILZ003-004-008-010-011-017-018-241000-
NORTH CENTRAL ILLINOIS

CITY           SKY/WX    TMP DP  RH WIND       PRES   REMARKS
ROCKFORD       PTCLDY    45  36  70 E3        30.02S
FREEPORT*      CLEAR     40  32  75 E5        30.01S
$$

ILZ005-006-012>014-019>023-241000-
NORTHEAST ILLINOIS

CITY           SKY/WX    TMP DP  RH WIND       PRES   REMARKS
CHICAGO-OHARE  PTCLDY    41  37  86 NE7       30.01S
CHICAGO-MIDWAY PTCLDY    44  39  82 N5        30.03R
AURORA         CLEAR     43  38  82 NE3       30.01R
LANSING*       CLEAR     41  41 100 CALM      30.02S
WAUKEGAN       CLEAR     33  32  96 N3        30.02R
DUPAGE AIRPORT CLEAR     36  36 100 N5        30.01R WCI  32
WHEELING       CLEAR     40  38  93 NE5       30.03S
NORTHERLY ISL    N/A     42  39  89 N7          N/A
$$

LMZ740>746-241000-
SOUTHERN LAKE MICHIGAN

STATION/POSITION SKY/WX   TEMP    WIND        PRES    VSBY  WAVE
                          AIR SEA DIR/SP/G                  HT/PER
                          (F)     (DEG/KT/KT) (MB)    (MI)  (FT/S)
SOUTHERN BUOY              40 40   30/  4/  4 1017.4          3/ 7
HARRISON CRIB              43     360/  8/  9   N/A
BURNHAM HARBOR             42      10/  7/  8   N/A
CALUMET HARBOR             43     360/  5/  7 1016.0R
BURNS HARBOR               46      60/  4/  5 1016.9S
MICHIGAN CITY              46     130/  1/  1   N/A
ST. JOSEPH                 50 50   40/  4/  6 1016.9S         3/ 2
$$

ILZ025>027-034>036-040-047-049-050-058-095>099-241000-
WEST-CENTRAL ILLINOIS

CITY           SKY/WX    TMP DP  RH WIND       PRES   REMARKS
QUINCY         CLEAR     54  26  34 E7        29.96S
$$

ILZ028>032-037-038-041>044-048-051>054-059>061-241000-
CENTRAL ILLINOIS

CITY           SKY/WX    TMP DP  RH WIND       PRES   REMARKS
BLOOMINGTON    CLEAR     49  24  37 E7        29.99F
DECATUR        CLEAR     45  28  51 NE5       29.98S
PEORIA         CLEAR     46  28  49 CALM      29.98F
SPRINGFIELD    CLEAR     49  29  46 CALM      29.98S
TAYLORVILLE    NOT AVBL
$$

ILZ033-039-045-046-055>057-062-063-241000-
EAST-CENTRAL ILLINOIS

CITY           SKY/WX    TMP DP  RH WIND       PRES   REMARKS
CHAMPAIGN      CLEAR     47  28  47 NE9       29.98S
MATTOON        CLEAR     43  33  68 N3        29.96S
$$

ILZ079-100>102-241000-
SOUTHWEST ILLINOIS

CITY           SKY/WX    TMP DP  RH WIND       PRES   REMARKS
BELLEVILLE     CLEAR     45  35  68 CALM      29.93F
CAHOKIA*       CLEAR     41  37  86 CALM      29.94F
$$

ILZ064>066-069>071-074>076-080>082-084>086-088>090-092>094-241000-
SOUTH-CENTRAL ILLINOIS

CITY           SKY/WX    TMP DP  RH WIND       PRES   REMARKS
CARBONDALE     CLEAR     42  40  92 N6        29.92S
MT. VERNON     CLEAR     41  36  82 NE3       29.93S
$$

ILZ067-068-072-073-078-083-087-091-241000-
SOUTHEAST ILLINOIS

CITY           SKY/WX    TMP DP  RH WIND       PRES   REMARKS
LAWRENCEVILLE  CLEAR     50  34  54 NE12      29.93S
$$

ABBREVIATIONS USED IN REMARKS
   TC - TEMPERATURE IN CELSIUS
  WCI - WIND CHILL INDEX
   HX - HEAT INDEX
  VSB - VISIBILITY
$$





USA.gov is the U.S. government's official web portal to all federal, state and local government web resources and services.